Time,TemperatureF,DewpointF,PressureIn,WindDirection,WindDirectionDegrees,WindSpeedMPH,WindSpeedGustMPH,Humidity,HourlyPrecipIn,Conditions,Clouds,dailyrainin,SoftwareType,DateUTC
2013-11-23 00:01:00,52.9,44.2,30.08,North,0,3.8,7.6,72,0.00,,,0.00,WUHU216HW,2013-11-23 05:01:00,
2013-11-23 00:02:00,52.7,44.0,30.08,NNE,23,5.4,7.6,72,0.00,,,0.00,WUHU216HW,2013-11-23 05:02:00,
2013-11-23 00:06:00,52.7,44.0,30.09,West,270,3.4,6.9,72,0.00,,,0.00,WUHU216HW,2013-11-23 05:06:00,
2013-11-23 00:11:00,52.6,43.8,30.09,ESE,113,4.9,7.8,72,0.00,,,0.00,WUHU216HW,2013-11-23 05:11:00,
2013-11-23 00:17:00,52.6,43.5,30.09,WSW,248,2.0,7.8,71,0.00,,,0.00,WUHU216HW,2013-11-23 05:17:00,
2013-11-23 00:21:00,52.6,43.1,30.09,West,270,3.8,8.1,70,0.00,,,0.00,WUHU216HW,2013-11-23 05:21:00,
2013-11-23 00:26:00,52.4,42.9,30.09,West,270,2.2,11.4,70,0.00,,,0.00,WUHU216HW,2013-11-23 05:26:00,
2013-11-23 00:31:00,52.2,42.4,30.09,NNW,338,0.9,11.4,69,0.00,,,0.00,WUHU216HW,2013-11-23 05:31:00,
2013-11-23 00:36:00,52.2,42.4,30.09,West,270,3.4,9.2,69,0.00,,,0.00,WUHU216HW,2013-11-23 05:36:00,
2013-11-23 00:41:00,52.0,42.7,30.09,NNE,23,8.7,8.7,70,0.00,,,0.00,WUHU216HW,2013-11-23 05:41:00,
2013-11-23 00:46:00,51.5,42.1,30.09,West,270,3.6,8.7,70,0.00,,,0.00,WUHU216HW,2013-11-23 05:46:00,
2013-11-23 00:51:00,51.1,42.1,30.09,NNW,338,4.5,9.6,71,0.00,,,0.00,WUHU216HW,2013-11-23 05:51:00,
2013-11-23 00:56:00,50.4,41.0,30.10,NNE,23,3.4,9.6,70,0.00,,,0.00,WUHU216HW,2013-11-23 05:56:00,
2013-11-23 01:01:00,49.7,40.3,30.10,SW,225,6.7,8.5,70,0.00,,,0.00,WUHU216HW,2013-11-23 06:01:00,
2013-11-23 01:06:00,49.1,40.2,30.10,ENE,68,2.9,8.1,71,0.00,,,0.00,WUHU216HW,2013-11-23 06:06:00,
2013-11-23 01:11:00,48.8,39.8,30.10,North,0,3.4,7.8,71,0.00,,,0.00,WUHU216HW,2013-11-23 06:11:00,
2013-11-23 01:16:00,48.6,39.6,30.10,NNW,338,4.3,9.4,71,0.00,,,0.00,WUHU216HW,2013-11-23 06:16:00,
2013-11-23 01:21:00,48.4,39.4,30.11,WSW,248,4.0,10.1,71,0.00,,,0.00,WUHU216HW,2013-11-23 06:21:00,
2013-11-23 01:26:00,48.2,39.6,30.11,WNW,293,4.3,10.1,72,0.00,,,0.00,WUHU216HW,2013-11-23 06:26:00,
2013-11-23 01:31:00,48.2,39.3,30.11,SW,225,2.2,8.7,71,0.00,,,0.00,WUHU216HW,2013-11-23 06:31:00,
2013-11-23 01:36:00,48.1,38.0,30.12,NNE,23,3.6,9.8,68,0.00,,,0.00,WUHU216HW,2013-11-23 06:36:00,
2013-11-23 01:41:00,47.9,37.8,30.12,SW,225,5.6,9.8,68,0.00,,,0.00,WUHU216HW,2013-11-23 06:41:00,
2013-11-23 01:46:00,47.9,37.5,30.12,West,270,1.6,8.5,67,0.00,,,0.00,WUHU216HW,2013-11-23 06:46:00,
2013-11-23 01:51:00,47.9,37.5,30.12,North,0,5.6,8.1,67,0.00,,,0.00,WUHU216HW,2013-11-23 06:51:00,
2013-11-23 01:56:00,47.7,36.9,30.12,WSW,248,4.5,7.4,66,0.00,,,0.00,WUHU216HW,2013-11-23 06:56:00,
2013-11-23 02:01:00,47.5,36.3,30.12,WSW,248,5.6,9.6,65,0.00,,,0.00,WUHU216HW,2013-11-23 07:01:00,
2013-11-23 02:06:00,47.5,36.7,30.12,NNE,23,8.3,9.6,66,0.00,,,0.00,WUHU216HW,2013-11-23 07:06:00,
2013-11-23 02:11:00,47.3,36.6,30.12,SW,225,2.2,8.3,66,0.00,,,0.00,WUHU216HW,2013-11-23 07:11:00,
2013-11-23 02:16:00,47.2,36.0,30.12,NNW,338,4.3,8.3,65,0.00,,,0.00,WUHU216HW,2013-11-23 07:16:00,
2013-11-23 02:21:00,47.2,35.6,30.12,ESE,113,3.4,7.6,64,0.00,,,0.00,WUHU216HW,2013-11-23 07:21:00,
2013-11-23 02:26:00,47.2,35.6,30.13,SW,225,2.2,7.6,64,0.00,,,0.00,WUHU216HW,2013-11-23 07:26:00,
2013-11-23 02:31:00,47.0,35.4,30.13,ENE,68,1.6,5.4,64,0.00,,,0.00,WUHU216HW,2013-11-23 07:31:00,
2013-11-23 02:36:00,46.8,34.8,30.13,North,0,7.6,7.6,63,0.00,,,0.00,WUHU216HW,2013-11-23 07:36:00,
2013-11-23 02:41:00,46.6,35.1,30.13,NE,45,1.1,7.6,64,0.00,,,0.00,WUHU216HW,2013-11-23 07:41:00,
2013-11-23 02:46:00,46.4,34.9,30.13,NW,315,2.2,7.6,64,0.00,,,0.00,WUHU216HW,2013-11-23 07:46:00,
2013-11-23 02:51:00,46.4,34.9,30.13,NW,315,2.2,6.9,64,0.00,,,0.00,WUHU216HW,2013-11-23 07:51:00,
2013-11-23 02:56:00,46.3,34.8,30.13,NW,315,2.2,6.0,64,0.00,,,0.00,WUHU216HW,2013-11-23 07:56:00,
2013-11-23 03:01:00,46.3,34.8,30.13,WNW,293,0.9,6.0,64,0.00,,,0.00,WUHU216HW,2013-11-23 08:01:00,
2013-11-23 03:06:00,46.1,34.9,30.13,West,270,3.8,6.9,65,0.00,,,0.00,WUHU216HW,2013-11-23 08:06:00,
2013-11-23 03:11:00,45.9,34.7,30.13,ENE,68,2.0,6.9,65,0.00,,,0.00,WUHU216HW,2013-11-23 08:11:00,
2013-11-23 03:16:00,45.7,34.6,30.13,NNW,338,0.7,5.4,65,0.00,,,0.00,WUHU216HW,2013-11-23 08:16:00,
2013-11-23 03:21:00,45.5,34.8,30.13,NNE,23,1.6,5.4,66,0.00,,,0.00,WUHU216HW,2013-11-23 08:21:00,
2013-11-23 03:26:00,45.2,34.5,30.13,WNW,293,2.5,3.4,66,0.00,,,0.00,WUHU216HW,2013-11-23 08:26:00,
2013-11-23 03:32:00,45.0,34.7,30.13,West,270,3.4,4.0,67,0.00,,,0.00,WUHU216HW,2013-11-23 08:32:00,
2013-11-23 03:36:00,45.0,34.7,30.14,SW,225,1.8,8.3,67,0.00,,,0.00,WUHU216HW,2013-11-23 08:36:00,
2013-11-23 03:41:00,44.8,34.9,30.14,West,270,0.7,8.3,68,0.00,,,0.00,WUHU216HW,2013-11-23 08:41:00,
2013-11-23 03:46:00,44.6,34.8,30.14,SSE,158,0.0,4.7,68,0.00,,,0.00,WUHU216HW,2013-11-23 08:46:00,
2013-11-23 03:52:00,44.3,34.4,30.14,SSW,203,0.7,3.1,68,0.00,,,0.00,WUHU216HW,2013-11-23 08:52:00,
2013-11-23 03:56:00,43.6,34.1,30.15,ENE,68,3.1,3.4,69,0.00,,,0.00,WUHU216HW,2013-11-23 08:56:00,
2013-11-23 04:02:00,43.4,33.9,30.15,WSW,248,1.1,4.7,69,0.00,,,0.00,WUHU216HW,2013-11-23 09:02:00,
2013-11-23 04:07:00,43.4,33.9,30.15,WSW,248,1.8,4.7,69,0.00,,,0.00,WUHU216HW,2013-11-23 09:07:00,
2013-11-23 04:12:00,43.6,33.8,30.15,West,270,3.4,4.7,68,0.00,,,0.00,WUHU216HW,2013-11-23 09:12:00,
2013-11-23 04:16:00,43.6,33.8,30.15,NW,315,1.3,4.7,68,0.00,,,0.00,WUHU216HW,2013-11-23 09:16:00,
2013-11-23 04:21:00,43.2,33.4,30.15,WNW,293,1.8,3.4,68,0.00,,,0.00,WUHU216HW,2013-11-23 09:21:00,
2013-11-23 04:26:00,43.0,33.2,30.15,WSW,248,2.0,3.8,68,0.00,,,0.00,WUHU216HW,2013-11-23 09:26:00,
2013-11-23 04:31:00,43.0,33.2,30.15,NNW,338,1.8,8.5,68,0.00,,,0.00,WUHU216HW,2013-11-23 09:31:00,
2013-11-23 04:36:00,42.8,33.0,30.15,NNE,23,1.8,8.5,68,0.00,,,0.00,WUHU216HW,2013-11-23 09:36:00,
2013-11-23 04:41:00,42.5,32.7,30.16,NW,315,2.7,4.7,68,0.00,,,0.00,WUHU216HW,2013-11-23 09:41:00,
2013-11-23 04:46:00,42.3,32.5,30.15,NW,315,2.7,4.7,68,0.00,,,0.00,WUHU216HW,2013-11-23 09:46:00,
2013-11-23 04:51:00,42.1,32.3,30.15,SW,225,6.3,11.9,68,0.00,,,0.00,WUHU216HW,2013-11-23 09:51:00,
2013-11-23 04:56:00,42.1,32.3,30.15,NW,315,2.9,11.9,68,0.00,,,0.00,WUHU216HW,2013-11-23 09:56:00,
2013-11-23 05:01:00,41.9,32.1,30.15,NNW,338,4.5,8.9,68,0.00,,,0.00,WUHU216HW,2013-11-23 10:01:00,
2013-11-23 05:06:00,41.8,31.6,30.15,NNW,338,1.8,8.5,67,0.00,,,0.00,WUHU216HW,2013-11-23 10:06:00,
2013-11-23 05:11:00,41.6,31.4,30.15,WSW,248,7.4,11.9,67,0.00,,,0.00,WUHU216HW,2013-11-23 10:11:00,
2013-11-23 05:16:00,41.6,31.4,30.14,NE,45,2.9,11.9,67,0.00,,,0.00,WUHU216HW,2013-11-23 10:16:00,
2013-11-23 05:21:00,41.4,31.2,30.14,WNW,293,2.2,10.5,67,0.00,,,0.00,WUHU216HW,2013-11-23 10:21:00,
2013-11-23 05:26:00,41.4,31.2,30.15,NW,315,3.4,8.3,67,0.00,,,0.00,WUHU216HW,2013-11-23 10:26:00,
2013-11-23 05:31:00,41.0,30.9,30.15,SW,225,0.9,5.4,67,0.00,,,0.00,WUHU216HW,2013-11-23 10:31:00,
2013-11-23 05:36:00,40.7,30.5,30.16,NNE,23,0.2,3.4,67,0.00,,,0.00,WUHU216HW,2013-11-23 10:36:00,
2013-11-23 05:41:00,40.7,30.5,30.16,NNW,338,0.0,2.0,67,0.00,,,0.00,WUHU216HW,2013-11-23 10:41:00,
2013-11-23 05:46:00,40.3,30.2,30.16,NNW,338,1.8,2.0,67,0.00,,,0.00,WUHU216HW,2013-11-23 10:46:00,
2013-11-23 05:51:00,40.0,29.8,30.16,West,270,1.1,3.1,67,0.00,,,0.00,WUHU216HW,2013-11-23 10:51:00,
2013-11-23 05:56:00,39.8,29.6,30.16,NNW,338,0.9,3.1,67,0.00,,,0.00,WUHU216HW,2013-11-23 10:56:00,
2013-11-23 06:01:00,39.8,30.1,30.16,North,0,0.7,2.9,68,0.00,,,0.00,WUHU216HW,2013-11-23 11:01:00,
2013-11-23 06:07:00,39.4,29.7,30.16,NNW,338,1.3,2.2,68,0.00,,,0.00,WUHU216HW,2013-11-23 11:07:00,
2013-11-23 06:12:00,39.4,29.7,30.17,NNW,338,0.7,2.9,68,0.00,,,0.00,WUHU216HW,2013-11-23 11:12:00,
2013-11-23 06:17:00,39.2,29.5,30.17,NE,45,0.7,2.9,68,0.00,,,0.00,WUHU216HW,2013-11-23 11:17:00,
2013-11-23 06:22:00,39.2,29.5,30.17,North,0,1.8,2.2,68,0.00,,,0.00,WUHU216HW,2013-11-23 11:22:00,
2013-11-23 06:27:00,39.2,29.5,30.17,SSE,158,0.4,2.5,68,0.00,,,0.00,WUHU216HW,2013-11-23 11:27:00,
2013-11-23 06:32:00,39.1,29.4,30.17,NW,315,0.2,2.5,68,0.00,,,0.00,WUHU216HW,2013-11-23 11:32:00,
2013-11-23 06:36:00,38.9,29.2,30.17,NNW,338,0.4,1.1,68,0.00,,,0.00,WUHU216HW,2013-11-23 11:36:00,
2013-11-23 06:41:00,38.7,28.6,30.18,NW,315,0.9,2.5,67,0.00,,,0.00,WUHU216HW,2013-11-23 11:41:00,
2013-11-23 06:46:00,38.5,28.4,30.18,NNE,23,4.0,4.7,67,0.00,,,0.00,WUHU216HW,2013-11-23 11:46:00,
2013-11-23 06:51:00,38.7,28.6,30.18,North,0,1.8,5.4,67,0.00,,,0.00,WUHU216HW,2013-11-23 11:51:00,
2013-11-23 06:56:00,38.7,28.3,30.18,WSW,248,3.4,6.5,66,0.00,,,0.00,WUHU216HW,2013-11-23 11:56:00,
2013-11-23 07:01:00,38.7,28.3,30.18,WNW,293,2.2,6.5,66,0.00,,,0.00,WUHU216HW,2013-11-23 12:01:00,
2013-11-23 07:22:00,38.3,27.9,30.18,WSW,248,4.0,4.0,66,0.00,,,0.00,WUHU216HW,2013-11-23 12:22:00,
2013-11-23 07:27:00,38.2,27.7,30.17,WNW,293,7.8,7.8,66,0.00,,,0.00,WUHU216HW,2013-11-23 12:27:00,
2013-11-23 07:32:00,38.3,27.5,30.17,SSW,203,2.0,7.8,65,0.00,,,0.00,WUHU216HW,2013-11-23 12:32:00,
2013-11-23 07:37:00,38.9,28.0,30.17,WNW,293,2.7,7.8,65,0.00,,,0.00,WUHU216HW,2013-11-23 12:37:00,
2013-11-23 07:42:00,39.2,28.0,30.17,WNW,293,1.6,6.7,64,0.00,,,0.00,WUHU216HW,2013-11-23 12:42:00,
2013-11-23 07:47:00,39.4,27.8,30.16,WNW,293,3.8,7.6,63,0.00,,,0.00,WUHU216HW,2013-11-23 12:47:00,
2013-11-23 07:52:00,39.6,28.0,30.16,NW,315,2.2,11.6,63,0.00,,,0.00,WUHU216HW,2013-11-23 12:52:00,
2013-11-23 07:57:00,39.8,28.2,30.17,WNW,293,5.4,11.6,63,0.00,,,0.00,WUHU216HW,2013-11-23 12:57:00,
2013-11-23 08:02:00,39.8,28.2,30.17,NE,45,7.4,10.5,63,0.00,,,0.00,WUHU216HW,2013-11-23 13:02:00,
2013-11-23 08:07:00,40.0,28.4,30.17,NW,315,3.1,10.5,63,0.00,,,0.00,WUHU216HW,2013-11-23 13:07:00,
2013-11-23 08:12:00,40.3,28.3,30.17,West,270,8.9,8.9,62,0.00,,,0.00,WUHU216HW,2013-11-23 13:12:00,
2013-11-23 08:17:00,40.5,28.9,30.17,West,270,4.0,9.4,63,0.00,,,0.00,WUHU216HW,2013-11-23 13:17:00,
2013-11-23 08:22:00,40.7,29.1,30.17,North,0,6.7,9.4,63,0.00,,,0.00,WUHU216HW,2013-11-23 13:22:00,
2013-11-23 08:27:00,40.7,28.6,30.17,WNW,293,4.0,10.5,62,0.00,,,0.00,WUHU216HW,2013-11-23 13:27:00,
2013-11-23 08:32:00,41.0,28.6,30.17,West,270,9.6,11.4,61,0.00,,,0.00,WUHU216HW,2013-11-23 13:32:00,
2013-11-23 08:37:00,41.2,28.8,30.17,West,270,6.9,11.4,61,0.00,,,0.00,WUHU216HW,2013-11-23 13:37:00,
2013-11-23 08:42:00,41.4,28.2,30.17,WNW,293,4.0,12.1,59,0.00,,,0.00,WUHU216HW,2013-11-23 13:42:00,
2013-11-23 08:47:00,41.4,28.6,30.17,WNW,293,5.4,12.1,60,0.00,,,0.00,WUHU216HW,2013-11-23 13:47:00,
2013-11-23 08:52:00,41.8,28.0,30.17,WNW,293,7.6,9.2,58,0.00,,,0.00,WUHU216HW,2013-11-23 13:52:00,
2013-11-23 08:57:00,42.1,28.4,30.17,NW,315,1.1,10.5,58,0.00,,,0.00,WUHU216HW,2013-11-23 13:57:00,
2013-11-23 09:02:00,42.1,27.9,30.17,WSW,248,2.5,10.5,57,0.00,,,0.00,WUHU216HW,2013-11-23 14:02:00,
2013-11-23 09:07:00,42.8,28.2,30.17,West,270,2.2,6.9,56,0.00,,,0.00,WUHU216HW,2013-11-23 14:07:00,
2013-11-23 09:12:00,43.0,28.4,30.17,ENE,68,0.9,9.2,56,0.00,,,0.00,WUHU216HW,2013-11-23 14:12:00,
2013-11-23 09:17:00,43.7,28.6,30.17,WSW,248,6.7,9.2,55,0.00,,,0.00,WUHU216HW,2013-11-23 14:17:00,
2013-11-23 09:22:00,43.7,27.7,30.17,West,270,3.4,7.2,53,0.00,,,0.00,WUHU216HW,2013-11-23 14:22:00,
2013-11-23 09:27:00,43.9,27.9,30.17,West,270,7.4,10.5,53,0.00,,,0.00,WUHU216HW,2013-11-23 14:27:00,
2013-11-23 09:32:00,43.6,27.6,30.17,WSW,248,6.9,11.4,53,0.00,,,0.00,WUHU216HW,2013-11-23 14:32:00,
2013-11-23 09:37:00,43.9,27.9,30.17,WNW,293,3.1,11.4,53,0.00,,,0.00,WUHU216HW,2013-11-23 14:37:00,
2013-11-23 09:42:00,43.7,26.8,30.17,WSW,248,4.5,15.4,51,0.00,,,0.00,WUHU216HW,2013-11-23 14:42:00,
2013-11-23 09:47:00,44.1,27.2,30.17,SSW,203,3.8,15.4,51,0.00,,,0.00,WUHU216HW,2013-11-23 14:47:00,
2013-11-23 09:52:00,44.3,26.8,30.16,NNW,338,7.6,11.2,50,0.00,,,0.00,WUHU216HW,2013-11-23 14:52:00,
2013-11-23 09:57:00,44.1,26.2,30.16,West,270,9.2,11.2,49,0.00,,,0.00,WUHU216HW,2013-11-23 14:57:00,
2013-11-23 10:02:00,44.1,26.2,30.16,WSW,248,5.4,11.2,49,0.00,,,0.00,WUHU216HW,2013-11-23 15:02:00,
2013-11-23 10:07:00,44.1,26.2,30.16,NW,315,0.4,11.2,49,0.00,,,0.00,WUHU216HW,2013-11-23 15:07:00,
2013-11-23 10:12:00,45.0,27.6,30.16,NW,315,5.4,9.4,50,0.00,,,0.00,WUHU216HW,2013-11-23 15:12:00,
2013-11-23 10:17:00,45.2,26.0,30.16,West,270,4.0,5.8,47,0.00,,,0.00,WUHU216HW,2013-11-23 15:17:00,
2013-11-23 10:22:00,44.3,24.7,30.16,WNW,293,8.5,13.4,46,0.00,,,0.00,WUHU216HW,2013-11-23 15:22:00,
2013-11-23 10:27:00,44.8,24.7,30.15,WSW,248,10.1,13.4,45,0.00,,,0.00,WUHU216HW,2013-11-23 15:27:00,
2013-11-23 10:32:00,45.4,25.1,30.15,West,270,4.3,11.0,45,0.00,,,0.00,WUHU216HW,2013-11-23 15:32:00,
2013-11-23 10:37:00,45.7,25.5,30.15,NW,315,4.7,11.0,45,0.00,,,0.00,WUHU216HW,2013-11-23 15:37:00,
2013-11-23 10:42:00,46.1,25.2,30.15,NW,315,3.1,9.4,44,0.00,,,0.00,WUHU216HW,2013-11-23 15:42:00,
2013-11-23 10:47:00,46.8,25.9,30.15,WNW,293,7.8,9.4,44,0.00,,,0.00,WUHU216HW,2013-11-23 15:47:00,
2013-11-23 10:52:00,46.4,24.5,30.15,WSW,248,9.8,9.8,42,0.00,,,0.00,WUHU216HW,2013-11-23 15:52:00,
2013-11-23 10:57:00,45.9,24.0,30.14,NW,315,4.3,12.1,42,0.00,,,0.00,WUHU216HW,2013-11-23 15:57:00,
2013-11-23 11:02:00,46.4,24.5,30.14,West,270,5.4,12.1,42,0.00,,,0.00,WUHU216HW,2013-11-23 16:02:00,
2013-11-23 11:07:00,46.3,24.3,30.15,West,270,6.7,12.8,42,0.00,,,0.00,WUHU216HW,2013-11-23 16:07:00,
2013-11-23 11:12:00,46.6,24.1,30.14,West,270,7.2,12.8,41,0.00,,,0.00,WUHU216HW,2013-11-23 16:12:00,
2013-11-23 11:17:00,46.8,24.3,30.13,West,270,6.0,8.9,41,0.00,,,0.00,WUHU216HW,2013-11-23 16:17:00,
2013-11-23 11:22:00,47.3,25.8,30.14,West,270,6.5,8.7,43,0.00,,,0.00,WUHU216HW,2013-11-23 16:22:00,
2013-11-23 11:27:00,46.8,24.3,30.14,NW,315,6.3,10.5,41,0.00,,,0.00,WUHU216HW,2013-11-23 16:27:00,
2013-11-23 11:32:00,46.4,24.5,30.13,West,270,5.1,13.9,42,0.00,,,0.00,WUHU216HW,2013-11-23 16:32:00,
2013-11-23 11:37:00,47.3,25.3,30.13,West,270,9.4,13.9,42,0.00,,,0.00,WUHU216HW,2013-11-23 16:37:00,
2013-11-23 11:42:00,47.3,25.3,30.13,WNW,293,3.8,12.1,42,0.00,,,0.00,WUHU216HW,2013-11-23 16:42:00,
2013-11-23 11:47:00,47.9,25.7,30.12,WNW,293,5.4,12.1,42,0.00,,,0.00,WUHU216HW,2013-11-23 16:47:00,
2013-11-23 11:52:00,47.9,25.7,30.12,NNW,338,3.4,8.5,42,0.00,,,0.00,WUHU216HW,2013-11-23 16:52:00,
2013-11-23 11:57:00,48.2,26.1,30.11,West,270,4.3,6.9,42,0.00,,,0.00,WUHU216HW,2013-11-23 16:57:00,
2013-11-23 12:02:00,47.7,25.1,30.11,West,270,6.0,9.4,41,0.00,,,0.00,WUHU216HW,2013-11-23 17:02:00,
2013-11-23 12:07:00,47.7,26.2,30.11,NW,315,4.5,9.8,43,0.00,,,0.00,WUHU216HW,2013-11-23 17:07:00,
2013-11-23 12:12:00,48.8,26.0,30.11,WSW,248,1.6,9.8,41,0.00,,,0.00,WUHU216HW,2013-11-23 17:12:00,
2013-11-23 12:17:00,48.1,24.8,30.11,West,270,11.6,13.4,40,0.00,,,0.00,WUHU216HW,2013-11-23 17:17:00,
2013-11-23 12:22:00,48.1,25.9,30.10,NW,315,1.8,13.4,42,0.00,,,0.00,WUHU216HW,2013-11-23 17:22:00,
2013-11-23 12:27:00,48.6,25.9,30.09,West,270,8.9,9.4,41,0.00,,,0.00,WUHU216HW,2013-11-23 17:27:00,
2013-11-23 12:32:00,47.2,25.7,30.09,NNE,23,2.5,15.0,43,0.00,,,0.00,WUHU216HW,2013-11-23 17:32:00,
2013-11-23 12:37:00,47.5,26.0,30.09,NNW,338,4.0,15.0,43,0.00,,,0.00,WUHU216HW,2013-11-23 17:37:00,
2013-11-23 12:42:00,47.9,26.3,30.09,NNW,338,2.0,9.8,43,0.00,,,0.00,WUHU216HW,2013-11-23 17:42:00,
2013-11-23 12:47:00,48.2,26.6,30.08,ENE,68,1.8,8.5,43,0.00,,,0.00,WUHU216HW,2013-11-23 17:47:00,
2013-11-23 12:52:00,47.9,25.7,30.08,West,270,5.4,11.4,42,0.00,,,0.00,WUHU216HW,2013-11-23 17:52:00,
2013-11-23 12:57:00,47.2,25.7,30.07,NW,315,4.0,11.4,43,0.00,,,0.00,WUHU216HW,2013-11-23 17:57:00,
2013-11-23 13:02:00,47.2,26.2,30.07,West,270,4.0,7.8,44,0.00,,,0.00,WUHU216HW,2013-11-23 18:02:00,
2013-11-23 13:07:00,47.3,25.8,30.07,West,270,4.5,9.4,43,0.00,,,0.00,WUHU216HW,2013-11-23 18:07:00,
2013-11-23 13:12:00,47.2,25.7,30.07,WSW,248,5.1,9.4,43,0.00,,,0.00,WUHU216HW,2013-11-23 18:12:00,
2013-11-23 13:17:00,47.5,26.0,30.06,West,270,3.4,9.2,43,0.00,,,0.00,WUHU216HW,2013-11-23 18:17:00,
2013-11-23 13:22:00,47.7,26.2,30.06,WSW,248,2.5,9.2,43,0.00,,,0.00,WUHU216HW,2013-11-23 18:22:00,
2013-11-23 13:27:00,47.9,25.7,30.06,North,0,3.6,11.0,42,0.00,,,0.00,WUHU216HW,2013-11-23 18:27:00,
2013-11-23 13:32:00,47.9,25.2,30.06,North,0,1.3,11.0,41,0.00,,,0.00,WUHU216HW,2013-11-23 18:32:00,
2013-11-23 13:37:00,48.2,25.0,30.06,NNW,338,4.3,9.6,40,0.00,,,0.00,WUHU216HW,2013-11-23 18:37:00,
2013-11-23 13:42:00,49.0,25.7,30.05,North,0,6.0,9.8,40,0.00,,,0.00,WUHU216HW,2013-11-23 18:42:00,
2013-11-23 13:47:00,48.6,25.4,30.05,WSW,248,1.8,11.2,40,0.00,,,0.00,WUHU216HW,2013-11-23 18:47:00,
2013-11-23 13:52:00,48.6,24.0,30.05,WNW,293,6.3,11.2,38,0.00,,,0.00,WUHU216HW,2013-11-23 18:52:00,
2013-11-23 13:57:00,48.6,24.0,30.05,West,270,6.7,10.3,38,0.00,,,0.00,WUHU216HW,2013-11-23 18:57:00,
2013-11-23 14:02:00,48.6,25.4,30.05,NNW,338,4.5,10.3,40,0.00,,,0.00,WUHU216HW,2013-11-23 19:02:00,
2013-11-23 14:07:00,49.0,24.3,30.04,NW,315,10.3,10.7,38,0.00,,,0.00,WUHU216HW,2013-11-23 19:07:00,
2013-11-23 14:12:00,48.4,23.9,30.05,West,270,9.6,12.8,38,0.00,,,0.00,WUHU216HW,2013-11-23 19:12:00,
2013-11-23 14:17:00,47.5,23.0,30.05,West,270,9.2,12.8,38,0.00,,,0.00,WUHU216HW,2013-11-23 19:17:00,
2013-11-23 14:22:00,47.2,22.7,30.05,WSW,248,4.5,13.0,38,0.00,,,0.00,WUHU216HW,2013-11-23 19:22:00,
2013-11-23 14:27:00,46.8,23.0,30.05,North,0,5.6,13.0,39,0.00,,,0.00,WUHU216HW,2013-11-23 19:27:00,
2013-11-23 14:32:00,46.8,23.8,30.05,WNW,293,6.9,11.6,40,0.00,,,0.00,WUHU216HW,2013-11-23 19:32:00,
2013-11-23 14:37:00,47.5,24.4,30.05,West,270,3.8,13.4,40,0.00,,,0.00,WUHU216HW,2013-11-23 19:37:00,
2013-11-23 14:42:00,47.9,23.4,30.05,WNW,293,10.5,13.4,38,0.00,,,0.00,WUHU216HW,2013-11-23 19:42:00,
2013-11-23 14:47:00,47.3,22.9,30.05,WNW,293,8.9,14.5,38,0.00,,,0.00,WUHU216HW,2013-11-23 19:47:00,
2013-11-23 14:52:00,46.8,23.0,30.05,NNE,23,7.6,14.5,39,0.00,,,0.00,WUHU216HW,2013-11-23 19:52:00,
2013-11-23 14:57:00,47.0,23.2,30.05,WNW,293,6.9,16.6,39,0.00,,,0.00,WUHU216HW,2013-11-23 19:57:00,
2013-11-23 15:02:00,47.2,22.7,30.05,West,270,9.8,17.2,38,0.00,,,0.00,WUHU216HW,2013-11-23 20:02:00,
2013-11-23 15:07:00,47.0,21.3,30.05,WSW,248,5.4,17.2,36,0.00,,,0.00,WUHU216HW,2013-11-23 20:07:00,
2013-11-23 15:12:00,46.8,20.4,30.05,West,270,12.8,13.6,35,0.00,,,0.00,WUHU216HW,2013-11-23 20:12:00,
2013-11-23 15:17:00,46.3,21.2,30.05,WNW,293,9.8,15.0,37,0.00,,,0.00,WUHU216HW,2013-11-23 20:17:00,
2013-11-23 15:22:00,46.1,21.1,30.05,West,270,7.6,15.0,37,0.00,,,0.00,WUHU216HW,2013-11-23 20:22:00,
2013-11-23 15:27:00,45.7,20.8,30.04,West,270,3.4,12.8,37,0.00,,,0.00,WUHU216HW,2013-11-23 20:27:00,
2013-11-23 15:32:00,45.7,20.1,30.04,WSW,248,7.6,15.4,36,0.00,,,0.00,WUHU216HW,2013-11-23 20:32:00,
2013-11-23 15:37:00,45.4,19.8,30.05,West,270,10.1,15.4,36,0.00,,,0.00,WUHU216HW,2013-11-23 20:37:00,
2013-11-23 15:42:00,45.0,20.1,30.05,WNW,293,5.6,15.2,37,0.00,,,0.00,WUHU216HW,2013-11-23 20:42:00,
2013-11-23 15:47:00,44.8,20.0,30.05,NW,315,4.7,10.3,37,0.00,,,0.00,WUHU216HW,2013-11-23 20:47:00,
2013-11-23 15:52:00,44.3,20.2,30.05,WNW,293,7.6,10.3,38,0.00,,,0.00,WUHU216HW,2013-11-23 20:52:00,
2013-11-23 15:57:00,44.1,20.0,30.05,WNW,293,4.5,12.1,38,0.00,,,0.00,WUHU216HW,2013-11-23 20:57:00,
2013-11-23 16:02:00,43.7,19.6,30.05,West,270,7.4,14.1,38,0.00,,,0.00,WUHU216HW,2013-11-23 21:02:00,
2013-11-23 16:07:00,43.6,20.2,30.05,NW,315,4.0,14.1,39,0.00,,,0.00,WUHU216HW,2013-11-23 21:07:00,
2013-11-23 16:12:00,43.6,19.4,30.06,North,0,6.7,12.5,38,0.00,,,0.00,WUHU216HW,2013-11-23 21:12:00,
2013-11-23 16:17:00,43.4,19.4,30.06,West,270,6.9,12.5,38,0.00,,,0.00,WUHU216HW,2013-11-23 21:17:00,
2013-11-23 16:22:00,43.4,19.4,30.06,West,270,10.5,10.5,38,0.00,,,0.00,WUHU216HW,2013-11-23 21:22:00,
2013-11-23 16:27:00,43.0,19.0,30.06,West,270,1.8,10.5,38,0.00,,,0.00,WUHU216HW,2013-11-23 21:27:00,
2013-11-23 16:32:00,42.8,18.2,30.06,West,270,4.0,7.4,37,0.00,,,0.00,WUHU216HW,2013-11-23 21:32:00,
2013-11-23 16:37:00,42.7,18.0,30.06,WSW,248,7.6,8.5,37,0.00,,,0.00,WUHU216HW,2013-11-23 21:37:00,
2013-11-23 16:42:00,42.3,16.4,30.06,West,270,7.6,13.9,35,0.00,,,0.00,WUHU216HW,2013-11-23 21:42:00,
2013-11-23 16:47:00,42.1,16.9,30.07,NW,315,8.1,14.3,36,0.00,,,0.00,WUHU216HW,2013-11-23 21:47:00,
2013-11-23 16:52:00,41.8,17.2,30.07,SW,225,4.0,14.5,37,0.00,,,0.00,WUHU216HW,2013-11-23 21:52:00,
2013-11-23 16:57:00,41.4,16.9,30.07,West,270,8.1,14.5,37,0.00,,,0.00,WUHU216HW,2013-11-23 21:57:00,
2013-11-23 17:02:00,41.4,16.9,30.07,West,270,9.4,13.4,37,0.00,,,0.00,WUHU216HW,2013-11-23 22:02:00,
2013-11-23 17:07:00,41.2,16.7,30.07,West,270,8.7,13.4,37,0.00,,,0.00,WUHU216HW,2013-11-23 22:07:00,
2013-11-23 17:12:00,41.2,17.4,30.07,WNW,293,10.1,13.4,38,0.00,,,0.00,WUHU216HW,2013-11-23 22:12:00,
2013-11-23 17:17:00,40.9,17.1,30.07,West,270,10.5,10.5,38,0.00,,,0.00,WUHU216HW,2013-11-23 22:17:00,
2013-11-23 17:22:00,40.7,17.6,30.08,WSW,248,2.2,10.5,39,0.00,,,0.00,WUHU216HW,2013-11-23 22:22:00,
2013-11-23 17:27:00,40.5,17.4,30.07,WNW,293,5.4,14.3,39,0.00,,,0.00,WUHU216HW,2013-11-23 22:27:00,
2013-11-23 17:32:00,40.3,17.3,30.08,WNW,293,5.4,14.3,39,0.00,,,0.00,WUHU216HW,2013-11-23 22:32:00,
2013-11-23 17:37:00,40.1,17.1,30.08,NE,45,3.6,11.6,39,0.00,,,0.00,WUHU216HW,2013-11-23 22:37:00,
2013-11-23 17:42:00,40.0,16.9,30.08,WNW,293,6.5,9.8,39,0.00,,,0.00,WUHU216HW,2013-11-23 22:42:00,
2013-11-23 17:47:00,40.0,16.9,30.08,NW,315,3.1,13.6,39,0.00,,,0.00,WUHU216HW,2013-11-23 22:47:00,
2013-11-23 17:52:00,40.0,16.9,30.08,West,270,13.0,13.6,39,0.00,,,0.00,WUHU216HW,2013-11-23 22:52:00,
2013-11-23 17:57:00,39.8,16.7,30.08,NW,315,6.9,13.0,39,0.00,,,0.00,WUHU216HW,2013-11-23 22:57:00,
2013-11-23 18:02:00,39.8,16.7,30.09,WSW,248,5.8,13.9,39,0.00,,,0.00,WUHU216HW,2013-11-23 23:02:00,
2013-11-23 18:07:00,39.8,16.7,30.09,West,270,6.5,14.8,39,0.00,,,0.00,WUHU216HW,2013-11-23 23:07:00,
2013-11-23 18:09:00,39.6,16.6,30.09,WNW,293,9.8,14.8,39,0.00,,,0.00,WUHU216HW,2013-11-23 23:09:00,
2013-11-23 18:14:00,39.6,16.6,30.10,West,270,8.5,13.9,39,0.00,,,0.00,WUHU216HW,2013-11-23 23:14:00,
2013-11-23 18:19:00,39.6,17.3,30.09,WSW,248,4.3,13.9,40,0.00,,,0.00,WUHU216HW,2013-11-23 23:19:00,
2013-11-23 18:24:00,39.6,17.3,30.09,NW,315,8.7,10.5,40,0.00,,,0.00,WUHU216HW,2013-11-23 23:24:00,
2013-11-23 18:29:00,39.6,17.7,30.09,WSW,248,5.1,8.9,41,0.00,,,0.00,WUHU216HW,2013-11-23 23:29:00,
2013-11-23 18:34:00,39.4,17.7,30.09,West,270,2.7,10.5,41,0.00,,,0.00,WUHU216HW,2013-11-23 23:34:00,
2013-11-23 18:39:00,39.2,18.0,30.10,NW,315,8.7,10.5,42,0.00,,,0.00,WUHU216HW,2013-11-23 23:39:00,
2013-11-23 18:44:00,39.2,18.5,30.10,West,270,4.7,10.3,43,0.00,,,0.00,WUHU216HW,2013-11-23 23:44:00,
2013-11-23 18:49:00,39.2,18.5,30.09,West,270,5.6,10.3,43,0.00,,,0.00,WUHU216HW,2013-11-23 23:49:00,
2013-11-23 18:54:00,39.1,18.8,30.10,NW,315,5.1,6.7,44,0.00,,,0.00,WUHU216HW,2013-11-23 23:54:00,
2013-11-23 18:59:00,39.1,18.8,30.09,NW,315,4.7,10.3,44,0.00,,,0.00,WUHU216HW,2013-11-23 23:59:00,
2013-11-23 19:04:00,39.1,19.4,30.10,NW,315,2.0,10.3,45,0.00,,,0.00,WUHU216HW,2013-11-24 00:04:00,
2013-11-23 19:09:00,38.9,19.2,30.10,WSW,248,5.1,6.7,45,0.00,,,0.00,WUHU216HW,2013-11-24 00:09:00,
2013-11-23 19:14:00,38.9,19.2,30.10,NW,315,0.4,9.6,45,0.00,,,0.00,WUHU216HW,2013-11-24 00:14:00,
2013-11-23 19:19:00,38.9,19.2,30.10,WSW,248,3.1,9.6,45,0.00,,,0.00,WUHU216HW,2013-11-24 00:19:00,
2013-11-23 19:24:00,38.7,19.1,30.10,NE,45,3.4,4.0,45,0.00,,,0.00,WUHU216HW,2013-11-24 00:24:00,
2013-11-23 19:29:00,38.5,19.9,30.11,NE,45,4.0,15.4,47,0.00,,,0.00,WUHU216HW,2013-11-24 00:29:00,
2013-11-23 19:34:00,38.0,20.5,30.11,NNW,338,3.4,15.4,49,0.00,,,0.00,WUHU216HW,2013-11-24 00:34:00,
2013-11-23 19:39:00,37.6,20.7,30.11,North,0,1.8,14.3,50,0.00,,,0.00,WUHU216HW,2013-11-24 00:39:00,
2013-11-23 19:44:00,37.4,21.4,30.11,WNW,293,10.1,14.3,52,0.00,,,0.00,WUHU216HW,2013-11-24 00:44:00,
2013-11-23 19:49:00,37.3,21.3,30.11,West,270,3.4,11.4,52,0.00,,,0.00,WUHU216HW,2013-11-24 00:49:00,
2013-11-23 19:54:00,37.1,21.1,30.12,NNW,338,1.8,10.5,52,0.00,,,0.00,WUHU216HW,2013-11-24 00:54:00,
2013-11-23 19:59:00,36.7,20.7,30.12,NW,315,4.7,13.6,52,0.00,,,0.00,WUHU216HW,2013-11-24 00:59:00,
2013-11-23 20:04:00,36.5,21.0,30.12,NW,315,1.6,13.6,53,0.00,,,0.00,WUHU216HW,2013-11-24 01:04:00,
2013-11-23 20:09:00,36.4,20.4,30.12,West,270,8.9,8.9,52,0.00,,,0.00,WUHU216HW,2013-11-24 01:09:00,
2013-11-23 20:14:00,36.4,20.4,30.12,ENE,68,2.7,8.9,52,0.00,,,0.00,WUHU216HW,2013-11-24 01:14:00,
2013-11-23 20:19:00,36.4,20.0,30.12,WNW,293,7.8,12.5,51,0.00,,,0.00,WUHU216HW,2013-11-24 01:19:00,
2013-11-23 20:24:00,36.2,19.8,30.13,NW,315,1.1,12.5,51,0.00,,,0.00,WUHU216HW,2013-11-24 01:24:00,
2013-11-23 20:29:00,36.0,19.6,30.13,WSW,248,2.0,9.2,51,0.00,,,0.00,WUHU216HW,2013-11-24 01:29:00,
2013-11-23 20:34:00,36.0,19.6,30.13,West,270,2.0,11.4,51,0.00,,,0.00,WUHU216HW,2013-11-24 01:34:00,
2013-11-23 20:39:00,35.8,19.9,30.13,NE,45,3.4,14.3,52,0.00,,,0.00,WUHU216HW,2013-11-24 01:39:00,
2013-11-23 20:44:00,35.3,22.0,30.13,NNW,338,7.2,14.3,58,0.00,,,0.00,WUHU216HW,2013-11-24 01:44:00,
2013-11-23 20:49:00,34.6,21.7,30.13,NNW,338,2.5,9.6,59,0.00,,,0.00,WUHU216HW,2013-11-24 01:49:00,
2013-11-23 20:54:00,34.4,21.1,30.14,WNW,293,6.3,8.5,58,0.00,,,0.00,WUHU216HW,2013-11-24 01:54:00,
2013-11-23 20:59:00,34.4,20.7,30.14,West,270,4.7,11.2,57,0.00,,,0.00,WUHU216HW,2013-11-24 01:59:00,
2013-11-23 21:04:00,34.4,20.3,30.14,NNW,338,7.6,11.2,56,0.00,,,0.00,WUHU216HW,2013-11-24 02:04:00,
2013-11-23 21:09:00,34.2,20.1,30.15,West,270,3.6,8.5,56,0.00,,,0.00,WUHU216HW,2013-11-24 02:09:00,
2013-11-23 21:14:00,34.2,20.1,30.15,ENE,68,2.0,11.0,56,0.00,,,0.00,WUHU216HW,2013-11-24 02:14:00,
2013-11-23 21:19:00,34.0,19.9,30.15,West,270,1.3,11.0,56,0.00,,,0.00,WUHU216HW,2013-11-24 02:19:00,
2013-11-23 21:24:00,33.8,19.7,30.15,West,270,4.3,9.8,56,0.00,,,0.00,WUHU216HW,2013-11-24 02:24:00,
2013-11-23 21:29:00,33.7,19.5,30.15,North,0,2.9,7.2,56,0.00,,,0.00,WUHU216HW,2013-11-24 02:29:00,
2013-11-23 21:34:00,33.7,19.5,30.15,NW,315,4.7,7.6,56,0.00,,,0.00,WUHU216HW,2013-11-24 02:34:00,
2013-11-23 21:39:00,33.5,20.7,30.16,NNW,338,5.8,7.6,59,0.00,,,0.00,WUHU216HW,2013-11-24 02:39:00,
2013-11-23 21:44:00,32.8,20.8,30.17,West,270,6.7,10.7,61,0.00,,,0.00,WUHU216HW,2013-11-24 02:44:00,
2013-11-23 21:49:00,32.0,18.9,30.17,NNW,338,3.1,12.1,58,0.00,,,0.00,WUHU216HW,2013-11-24 02:49:00,
2013-11-23 21:54:00,31.9,18.4,30.17,West,270,4.0,12.1,57,0.00,,,0.00,WUHU216HW,2013-11-24 02:54:00,
2013-11-23 21:59:00,31.9,17.5,30.17,North,0,4.9,11.6,55,0.00,,,0.00,WUHU216HW,2013-11-24 02:59:00,
2013-11-23 22:04:00,31.7,16.8,30.17,ENE,68,6.3,11.6,54,0.00,,,0.00,WUHU216HW,2013-11-24 03:04:00,
2013-11-23 22:09:00,31.5,16.3,30.17,WNW,293,1.6,11.2,53,0.00,,,0.00,WUHU216HW,2013-11-24 03:09:00,
2013-11-23 22:14:00,31.5,16.3,30.17,South,180,3.4,10.1,53,0.00,,,0.00,WUHU216HW,2013-11-24 03:14:00,
2013-11-23 22:19:00,31.5,15.8,30.17,West,270,4.7,10.5,52,0.00,,,0.00,WUHU216HW,2013-11-24 03:19:00,
2013-11-23 22:24:00,31.5,15.8,30.18,West,270,8.1,11.0,52,0.00,,,0.00,WUHU216HW,2013-11-24 03:24:00,
2013-11-23 22:29:00,31.3,16.1,30.18,WNW,293,6.9,11.0,53,0.00,,,0.00,WUHU216HW,2013-11-24 03:29:00,
2013-11-23 22:34:00,31.3,16.1,30.18,SW,225,4.0,15.9,53,0.00,,,0.00,WUHU216HW,2013-11-24 03:34:00,
2013-11-23 22:39:00,31.3,16.1,30.18,North,0,1.8,15.9,53,0.00,,,0.00,WUHU216HW,2013-11-24 03:39:00,
2013-11-23 22:44:00,31.1,16.4,30.19,West,270,5.6,14.5,54,0.00,,,0.00,WUHU216HW,2013-11-24 03:44:00,
2013-11-23 22:49:00,31.1,16.4,30.19,West,270,2.2,11.9,54,0.00,,,0.00,WUHU216HW,2013-11-24 03:49:00,
2013-11-23 22:54:00,31.0,16.7,30.19,NE,45,2.0,9.6,55,0.00,,,0.00,WUHU216HW,2013-11-24 03:54:00,
2013-11-23 22:59:00,30.8,17.3,30.19,North,0,3.4,9.2,57,0.00,,,0.00,WUHU216HW,2013-11-24 03:59:00,
2013-11-23 23:04:00,30.6,17.1,30.19,WNW,293,1.8,6.9,57,0.00,,,0.00,WUHU216HW,2013-11-24 04:04:00,
2013-11-23 23:09:00,30.4,16.9,30.19,NNW,338,3.1,6.9,57,0.00,,,0.00,WUHU216HW,2013-11-24 04:09:00,
2013-11-23 23:14:00,30.4,16.6,30.20,SW,225,5.6,6.9,56,0.00,,,0.00,WUHU216HW,2013-11-24 04:14:00,
2013-11-23 23:19:00,30.2,16.4,30.20,NE,45,6.5,11.9,56,0.00,,,0.00,WUHU216HW,2013-11-24 04:19:00,
2013-11-23 23:24:00,29.9,15.6,30.20,WNW,293,3.6,15.2,55,0.00,,,0.00,WUHU216HW,2013-11-24 04:24:00,
2013-11-23 23:29:00,29.5,15.7,30.20,North,0,3.4,15.2,56,0.00,,,0.00,WUHU216HW,2013-11-24 04:29:00,
2013-11-23 23:34:00,29.2,16.2,30.21,WNW,293,5.4,14.1,58,0.00,,,0.00,WUHU216HW,2013-11-24 04:34:00,
2013-11-23 23:39:00,28.6,15.8,30.21,WSW,248,4.0,14.1,58,0.00,,,0.00,WUHU216HW,2013-11-24 04:39:00,
2013-11-23 23:44:00,28.4,15.6,30.21,WNW,293,4.7,16.3,58,0.00,,,0.00,WUHU216HW,2013-11-24 04:44:00,
2013-11-23 23:49:00,28.3,14.6,30.21,NE,45,6.9,17.9,56,0.00,,,0.00,WUHU216HW,2013-11-24 04:49:00,
2013-11-23 23:54:00,28.1,13.5,30.21,NW,315,5.8,17.9,54,0.00,,,0.00,WUHU216HW,2013-11-24 04:54:00,
2013-11-23 23:59:00,28.1,12.3,30.21,WNW,293,11.4,16.3,51,0.00,,,0.00,WUHU216HW,2013-11-24 04:59:00,